Time,TemperatureF,DewpointF,PressureIn,WindDirection,WindDirectionDegrees,WindSpeedMPH,WindSpeedGustMPH,Humidity,HourlyPrecipIn,Conditions,Clouds,dailyrainin,SoftwareType,DateUTC
2013-04-10 08:47:00,52.9,49.4,29.81,SSW,193,1.0,3.0,88,0.00,RA,RA,0.03,WeatherDisplay:10.37,2013-04-10 15:47:00,
2013-04-10 08:53:00,52.9,49.4,29.81,South,182,1.0,3.0,88,0.00,OVC,OVC,0.03,WeatherDisplay:10.37,2013-04-10 15:53:00,
2013-04-10 09:02:00,52.9,49.4,29.81,South,185,2.0,5.0,88,0.00,OVC,OVC,0.03,WeatherDisplay:10.37,2013-04-10 16:02:00,
2013-04-10 09:07:00,52.9,49.4,29.81,SW,217,2.0,6.0,88,0.00,-RA,-RA,0.03,WeatherDisplay:10.37,2013-04-10 16:07:00,
2013-04-10 09:13:00,52.9,49.4,29.81,SSW,203,2.0,6.0,88,0.00,-RA,-RA,0.03,WeatherDisplay:10.37,2013-04-10 16:13:00,
2013-04-10 09:23:00,52.9,49.4,29.81,South,171,2.0,4.0,88,0.00,-RA,-RA,0.03,WeatherDisplay:10.37,2013-04-10 16:23:00,
2013-04-10 09:33:00,52.7,49.2,29.81,SSW,213,3.0,7.0,88,0.00,-RA,-RA,0.03,WeatherDisplay:10.37,2013-04-10 16:33:00,
2013-04-10 09:43:00,52.7,49.2,29.81,South,186,5.0,8.0,88,0.00,-RA,-RA,0.03,WeatherDisplay:10.37,2013-04-10 16:43:00,
2013-04-10 09:53:00,52.7,49.5,29.81,South,173,3.0,7.0,89,0.00,-RA,-RA,0.03,WeatherDisplay:10.37,2013-04-10 16:53:00,
2013-04-10 10:02:00,52.5,49.4,29.81,SSE,161,3.0,6.0,89,0.00,-RA,-RA,0.03,WeatherDisplay:10.37,2013-04-10 17:02:00,
2013-04-10 10:08:00,52.7,49.5,29.81,South,179,3.0,9.0,89,0.00,-RA,-RA,0.03,WeatherDisplay:10.37,2013-04-10 17:08:00,
2013-04-10 10:13:00,52.5,49.4,29.81,WSW,241,3.0,6.0,89,0.00,-RA,-RA,0.03,WeatherDisplay:10.37,2013-04-10 17:13:00,
2013-04-10 10:23:00,52.3,49.2,29.81,SSE,154,3.0,8.0,89,0.00,-RA,-RA,0.03,WeatherDisplay:10.37,2013-04-10 17:23:00,
2013-04-10 10:33:00,52.3,49.2,29.81,SSE,161,5.0,7.0,89,0.00,-RA,-RA,0.03,WeatherDisplay:10.37,2013-04-10 17:33:00,
2013-04-10 10:43:00,52.3,49.2,29.82,SE,134,3.0,9.0,89,0.00,-RA,-RA,0.03,WeatherDisplay:10.37,2013-04-10 17:43:00,
2013-04-10 10:53:00,52.5,49.4,29.82,SSW,200,3.0,7.0,89,0.00,-RA,-RA,0.03,WeatherDisplay:10.37,2013-04-10 17:53:00,
2013-04-10 11:08:00,53.1,50.2,29.83,SSE,152,3.0,4.0,90,0.00,OVC,OVC,0.03,WeatherDisplay:10.37,2013-04-10 18:08:00,
2013-04-10 11:13:00,53.2,50.4,29.83,South,175,2.0,6.0,90,0.00,OVC,OVC,0.03,WeatherDisplay:10.37,2013-04-10 18:13:00,
2013-04-10 11:28:00,53.8,50.6,29.85,South,183,2.0,3.0,89,0.00,OVC,OVC,0.03,WeatherDisplay:10.37,2013-04-10 18:28:00,
2013-04-10 11:33:00,54.1,51.0,29.85,SSE,168,1.0,5.0,89,0.00,OVC,OVC,0.03,WeatherDisplay:10.37,2013-04-10 18:33:00,
2013-04-10 11:43:00,54.1,50.7,29.86,SSE,149,2.0,3.0,88,0.00,OVC,OVC,0.03,WeatherDisplay:10.37,2013-04-10 18:43:00,
2013-04-10 11:53:00,54.5,51.0,29.86,SSE,156,2.0,5.0,88,0.00,OVC,OVC,0.03,WeatherDisplay:10.37,2013-04-10 18:53:00,
2013-04-10 12:03:00,54.9,51.4,29.87,SSE,168,2.0,6.0,88,0.00,OVC,OVC,0.03,WeatherDisplay:10.37,2013-04-10 19:03:00,
2013-04-10 12:13:00,55.4,51.9,29.87,SW,219,2.0,7.0,88,0.00,OVC,OVC,0.03,WeatherDisplay:10.37,2013-04-10 19:13:00,
2013-04-10 12:23:00,56.1,52.3,29.87,SSE,163,3.0,5.0,87,0.00,OVC,OVC,0.03,WeatherDisplay:10.37,2013-04-10 19:23:00,
2013-04-10 12:33:00,57.2,53.0,29.87,South,174,2.0,8.0,86,0.00,RA,RA,0.06,WeatherDisplay:10.37,2013-04-10 19:33:00,
2013-04-10 12:43:00,57.7,52.9,29.88,SW,229,2.0,7.0,84,0.00,OVC,OVC,0.06,WeatherDisplay:10.37,2013-04-10 19:43:00,
2013-04-10 12:53:00,58.1,52.6,29.88,SSW,212,3.0,8.0,82,0.00,OVC,OVC,0.06,WeatherDisplay:10.37,2013-04-10 19:53:00,
2013-04-10 13:03:00,57.9,52.1,29.88,South,186,3.0,6.0,81,0.00,OVC,OVC,0.06,WeatherDisplay:10.37,2013-04-10 20:03:00,
2013-04-10 13:08:00,57.7,51.6,29.88,SSE,164,3.0,6.0,80,0.00,OVC,OVC,0.06,WeatherDisplay:10.37,2013-04-10 20:08:00,
2013-04-10 13:13:00,57.4,50.9,29.88,SSE,162,3.0,5.0,79,0.00,OVC,OVC,0.06,WeatherDisplay:10.37,2013-04-10 20:13:00,
2013-04-10 13:23:00,57.0,50.9,29.92,NNW,340,2.0,5.0,80,0.00,OVC,OVC,0.06,WeatherDisplay:10.37,2013-04-10 20:23:00,
2013-04-10 13:33:00,55.8,49.3,29.92,North,354,3.0,5.0,79,0.00,OVC,OVC,0.06,WeatherDisplay:10.37,2013-04-10 20:33:00,
2013-04-10 13:38:00,55.4,49.3,29.92,NW,326,2.0,3.0,80,0.00,OVC,OVC,0.06,WeatherDisplay:10.37,2013-04-10 20:38:00,
2013-04-10 13:48:00,54.9,49.1,29.94,NE,36,2.0,3.0,81,0.00,OVC,OVC,0.06,WeatherDisplay:10.37,2013-04-10 20:48:00,
2013-04-10 13:53:00,54.7,49.3,29.94,NE,42,2.0,3.0,82,0.00,OVC,OVC,0.06,WeatherDisplay:10.37,2013-04-10 20:53:00,
2013-04-10 13:58:00,54.7,49.3,29.94,NE,52,2.0,3.0,82,0.00,OVC,OVC,0.06,WeatherDisplay:10.37,2013-04-10 20:58:00,
2013-04-10 14:08:00,54.9,49.8,29.94,NE,50,1.0,3.0,83,0.00,OVC,OVC,0.06,WeatherDisplay:10.37,2013-04-10 21:08:00,
2013-04-10 14:13:00,55.2,50.1,29.94,NNE,29,1.0,3.0,83,0.00,OVC,OVC,0.06,WeatherDisplay:10.37,2013-04-10 21:13:00,
2013-04-10 14:23:00,55.6,49.8,29.95,NNE,24,2.0,5.0,81,0.00,OVC,OVC,0.06,WeatherDisplay:10.37,2013-04-10 21:23:00,
2013-04-10 14:33:00,55.2,49.2,29.95,North,5,1.0,2.0,80,0.00,OVC,OVC,0.06,WeatherDisplay:10.37,2013-04-10 21:33:00,
2013-04-10 14:43:00,55.6,49.5,29.98,East,81,0.0,2.0,80,0.00,OVC,OVC,0.06,WeatherDisplay:10.37,2013-04-10 21:43:00,
2013-04-10 14:53:00,55.6,49.5,29.98,East,81,0.0,2.0,80,0.00,OVC,OVC,0.06,WeatherDisplay:10.37,2013-04-10 21:53:00,
2013-04-10 15:03:00,55.6,49.5,29.99,SE,141,1.0,3.0,80,0.00,OVC,OVC,0.06,WeatherDisplay:10.37,2013-04-10 22:03:00,
2013-04-10 15:08:00,55.6,49.5,29.99,SE,135,1.0,3.0,80,0.00,OVC,OVC,0.06,WeatherDisplay:10.37,2013-04-10 22:08:00,
2013-04-10 15:13:00,55.6,49.5,29.99,SE,144,2.0,6.0,80,0.00,OVC,OVC,0.06,WeatherDisplay:10.37,2013-04-10 22:13:00,
2013-04-10 15:23:00,55.4,49.3,30.00,SE,128,2.0,5.0,80,0.00,OVC,OVC,0.06,WeatherDisplay:10.37,2013-04-10 22:23:00,
2013-04-10 15:33:00,55.2,49.2,30.00,SE,142,2.0,5.0,80,0.00,OVC,OVC,0.06,WeatherDisplay:10.37,2013-04-10 22:33:00,
2013-04-10 15:43:00,55.0,49.0,30.01,East,98,1.0,2.0,80,0.00,OVC,OVC,0.06,WeatherDisplay:10.37,2013-04-10 22:43:00,
2013-04-10 15:53:00,54.7,48.3,30.01,ESE,119,0.0,3.0,79,0.00,OVC,OVC,0.06,WeatherDisplay:10.37,2013-04-10 22:53:00,
2013-04-10 16:03:00,54.5,48.5,30.02,East,80,0.0,2.0,80,0.00,OVC,OVC,0.06,WeatherDisplay:10.37,2013-04-10 23:03:00,
2013-04-10 16:08:00,54.5,48.5,30.02,ESE,107,0.0,1.0,80,0.00,OVC,OVC,0.06,WeatherDisplay:10.37,2013-04-10 23:08:00,
2013-04-10 16:13:00,54.5,48.5,30.02,SSE,158,1.0,2.0,80,0.00,OVC,OVC,0.06,WeatherDisplay:10.37,2013-04-10 23:13:00,
2013-04-10 16:23:00,54.5,48.8,30.01,SE,139,0.0,1.0,81,0.00,OVC,OVC,0.06,WeatherDisplay:10.37,2013-04-10 23:23:00,
2013-04-10 16:33:00,54.5,48.5,30.01,East,85,0.0,1.0,80,0.00,OVC,OVC,0.06,WeatherDisplay:10.37,2013-04-10 23:33:00,
2013-04-10 16:43:00,54.3,47.9,30.03,East,87,0.0,1.0,79,0.00,OVC,OVC,0.06,WeatherDisplay:10.37,2013-04-10 23:43:00,
2013-04-10 16:53:00,54.1,47.8,30.03,ESE,123,0.0,3.0,79,0.00,OVC,OVC,0.06,WeatherDisplay:10.37,2013-04-10 23:53:00,
2013-04-10 17:03:00,53.8,47.1,30.03,NE,34,1.0,2.0,78,0.00,OVC,OVC,0.06,WeatherDisplay:10.37,2013-04-11 00:03:00,
2013-04-10 17:08:00,53.4,46.0,30.03,NE,44,2.0,4.0,76,0.00,OVC,OVC,0.06,WeatherDisplay:10.37,2013-04-11 00:08:00,
2013-04-10 17:13:00,53.1,45.7,30.03,ENE,64,1.0,3.0,76,0.00,OVC,OVC,0.06,WeatherDisplay:10.37,2013-04-11 00:13:00,
2013-04-10 17:23:00,52.9,45.9,30.03,East,94,0.0,0.0,77,0.00,OVC,OVC,0.06,WeatherDisplay:10.37,2013-04-11 00:23:00,
2013-04-10 17:33:00,52.9,46.2,30.03,NE,36,0.0,2.0,78,0.00,OVC,OVC,0.06,WeatherDisplay:10.37,2013-04-11 00:33:00,
2013-04-10 17:48:00,52.7,45.3,30.03,NE,51,1.0,3.0,76,0.00,OVC,OVC,0.06,WeatherDisplay:10.37,2013-04-11 00:48:00,
2013-04-10 17:53:00,52.3,45.0,30.03,ENE,60,2.0,3.0,76,0.00,OVC,OVC,0.06,WeatherDisplay:10.37,2013-04-11 00:53:00,
2013-04-10 18:03:00,52.3,45.0,30.04,ENE,57,1.0,3.0,76,0.00,OVC,OVC,0.06,WeatherDisplay:10.37,2013-04-11 01:03:00,
2013-04-10 18:08:00,52.3,45.0,30.04,NNE,32,1.0,5.0,76,0.00,OVC,OVC,0.06,WeatherDisplay:10.37,2013-04-11 01:08:00,
2013-04-10 18:13:00,52.0,44.6,30.04,North,11,2.0,5.0,76,0.00,OVC,OVC,0.06,WeatherDisplay:10.37,2013-04-11 01:13:00,
2013-04-10 18:23:00,52.0,45.0,30.04,NE,55,1.0,3.0,77,0.00,OVC,OVC,0.06,WeatherDisplay:10.37,2013-04-11 01:23:00,
2013-04-10 18:28:00,51.6,44.3,30.04,NNE,18,1.0,5.0,76,0.00,OVC,OVC,0.06,WeatherDisplay:10.37,2013-04-11 01:28:00,
2013-04-10 18:33:00,51.6,44.6,30.04,NNE,32,1.0,3.0,77,0.00,OVC,OVC,0.06,WeatherDisplay:10.37,2013-04-11 01:33:00,
2013-04-10 18:43:00,51.4,44.5,30.05,NNE,28,0.0,2.0,77,0.00,OVC,OVC,0.06,WeatherDisplay:10.37,2013-04-11 01:43:00,
2013-04-10 18:53:00,51.4,44.8,30.05,NNE,21,0.0,3.0,78,0.00,OVC,OVC,0.06,WeatherDisplay:10.37,2013-04-11 01:53:00,
2013-04-10 19:03:00,50.9,43.9,30.04,NNE,21,2.0,5.0,77,0.00,OVC,OVC,0.06,WeatherDisplay:10.37,2013-04-11 02:03:00,
2013-04-10 19:08:00,50.9,44.3,30.04,NNE,16,2.0,5.0,78,0.00,OVC,OVC,0.06,WeatherDisplay:10.37,2013-04-11 02:08:00,
2013-04-10 19:13:00,50.7,44.1,30.04,NNE,22,2.0,6.0,78,0.00,OVC,OVC,0.06,WeatherDisplay:10.37,2013-04-11 02:13:00,
2013-04-10 19:23:00,50.5,43.9,30.06,NNE,28,2.0,3.0,78,0.00,OVC,OVC,0.06,WeatherDisplay:10.37,2013-04-11 02:23:00,
2013-04-10 19:28:00,50.5,44.3,30.06,NE,40,1.0,3.0,79,0.00,OVC,OVC,0.06,WeatherDisplay:10.37,2013-04-11 02:28:00,
2013-04-10 19:33:00,50.5,44.3,30.06,ENE,61,0.0,1.0,79,0.00,OVC,OVC,0.06,WeatherDisplay:10.37,2013-04-11 02:33:00,
2013-04-10 19:38:00,50.5,44.3,30.06,NNE,32,0.0,2.0,79,0.00,OVC,OVC,0.06,WeatherDisplay:10.37,2013-04-11 02:38:00,
2013-04-10 19:43:00,50.5,44.3,30.05,NE,37,0.0,0.0,79,0.00,OVC,OVC,0.06,WeatherDisplay:10.37,2013-04-11 02:43:00,
2013-04-10 19:53:00,50.5,44.3,30.05,NNE,14,0.0,3.0,79,0.00,OVC,OVC,0.06,WeatherDisplay:10.37,2013-04-11 02:53:00,
2013-04-10 20:03:00,50.5,44.3,30.06,NNW,348,0.0,2.0,79,0.00,OVC,OVC,0.06,WeatherDisplay:10.37,2013-04-11 03:03:00,
2013-04-10 20:08:00,50.5,44.3,30.06,NNW,327,0.0,0.0,79,0.00,OVC,OVC,0.06,WeatherDisplay:10.37,2013-04-11 03:08:00,
2013-04-10 20:13:00,50.5,44.3,30.06,North,352,0.0,0.0,79,0.00,OVC,OVC,0.06,WeatherDisplay:10.37,2013-04-11 03:13:00,
2013-04-10 20:23:00,50.5,44.3,30.06,NNW,333,0.0,1.0,79,0.00,OVC,OVC,0.06,WeatherDisplay:10.37,2013-04-11 03:23:00,
2013-04-10 20:33:00,50.5,44.3,30.06,ESE,108,0.0,0.0,79,0.00,OVC,OVC,0.06,WeatherDisplay:10.37,2013-04-11 03:33:00,
2013-04-10 20:43:00,50.5,44.3,30.07,NNW,341,0.0,0.0,79,0.00,OVC,OVC,0.06,WeatherDisplay:10.37,2013-04-11 03:43:00,
2013-04-10 20:53:00,50.5,44.6,30.07,NW,322,0.0,0.0,80,0.00,OVC,OVC,0.06,WeatherDisplay:10.37,2013-04-11 03:53:00,
2013-04-10 21:03:00,50.5,44.6,30.08,North,11,0.0,0.0,80,0.00,OVC,OVC,0.06,WeatherDisplay:10.37,2013-04-11 04:03:00,
2013-04-10 21:13:00,50.5,44.9,30.08,NW,314,0.0,0.0,81,0.00,OVC,OVC,0.06,WeatherDisplay:10.37,2013-04-11 04:13:00,
2013-04-10 21:23:00,50.5,44.9,30.08,NNW,340,0.0,0.0,81,0.00,OVC,OVC,0.06,WeatherDisplay:10.37,2013-04-11 04:23:00,
2013-04-10 21:27:00,50.5,44.9,30.08,NW,322,0.0,0.0,81,0.00,OVC,OVC,0.06,WeatherDisplay:10.37,2013-04-11 04:27:00,
2013-04-10 21:33:00,50.5,44.9,30.08,West,281,0.0,0.0,81,0.00,OVC,OVC,0.06,WeatherDisplay:10.37,2013-04-11 04:33:00,
2013-04-10 21:43:00,50.4,44.7,30.09,SE,128,0.0,0.0,81,0.00,OVC,OVC,0.06,WeatherDisplay:10.37,2013-04-11 04:43:00,
2013-04-10 21:53:00,50.4,44.7,30.09,SE,126,0.0,0.0,81,0.00,OVC,OVC,0.06,WeatherDisplay:10.37,2013-04-11 04:53:00,
2013-04-10 22:02:00,50.4,44.7,30.10,ENE,76,0.0,0.0,81,0.00,OVC,OVC,0.06,WeatherDisplay:10.37,2013-04-11 05:02:00,
2013-04-10 22:08:00,50.4,44.7,30.10,NNE,16,0.0,0.0,81,0.00,FEW,FEW,0.06,WeatherDisplay:10.37,2013-04-11 05:08:00,
2013-04-10 22:13:00,50.4,44.7,30.10,North,356,0.0,0.0,81,0.00,FEW,FEW,0.06,WeatherDisplay:10.37,2013-04-11 05:13:00,
2013-04-10 22:17:00,50.4,44.7,30.10,North,358,0.0,0.0,81,0.00,FEW,FEW,0.06,WeatherDisplay:10.37,2013-04-11 05:17:00,
2013-04-10 22:23:00,50.4,44.7,30.10,NNW,337,0.0,0.0,81,0.00,FEW,FEW,0.06,WeatherDisplay:10.37,2013-04-11 05:23:00,
2013-04-10 22:33:00,50.4,44.7,30.10,North,358,0.0,0.0,81,0.00,FEW,FEW,0.06,WeatherDisplay:10.37,2013-04-11 05:33:00,
2013-04-10 22:38:00,50.4,44.7,30.10,NNE,23,0.0,1.0,81,0.00,FEW,FEW,0.06,WeatherDisplay:10.37,2013-04-11 05:38:00,
2013-04-10 22:43:00,50.4,44.7,30.11,NNE,31,0.0,3.0,81,0.00,FEW,FEW,0.06,WeatherDisplay:10.37,2013-04-11 05:43:00,
2013-04-10 22:53:00,50.4,44.7,30.11,NNE,29,1.0,5.0,81,0.00,FEW,FEW,0.06,WeatherDisplay:10.37,2013-04-11 05:53:00,
2013-04-10 23:02:00,50.4,44.7,30.11,North,6,1.0,1.0,81,0.00,FEW,FEW,0.06,WeatherDisplay:10.37,2013-04-11 06:02:00,
2013-04-10 23:08:00,50.4,44.7,30.11,NE,34,0.0,0.0,81,0.00,OVC,OVC,0.06,WeatherDisplay:10.37,2013-04-11 06:08:00,
2013-04-10 23:13:00,50.4,44.7,30.11,NE,52,0.0,0.0,81,0.00,OVC,OVC,0.06,WeatherDisplay:10.37,2013-04-11 06:13:00,
2013-04-10 23:23:00,50.4,44.7,30.12,North,355,0.0,0.0,81,0.00,OVC,OVC,0.06,WeatherDisplay:10.37,2013-04-11 06:23:00,
2013-04-10 23:33:00,50.4,44.7,30.12,SSW,205,0.0,0.0,81,0.00,OVC,OVC,0.06,WeatherDisplay:10.37,2013-04-11 06:33:00,
2013-04-10 23:43:00,50.4,44.7,30.12,SE,129,0.0,0.0,81,0.00,OVC,OVC,0.06,WeatherDisplay:10.37,2013-04-11 06:43:00,
2013-04-10 23:53:00,50.4,44.7,30.12,NNW,334,0.0,0.0,81,0.00,OVC,OVC,0.06,WeatherDisplay:10.37,2013-04-11 06:53:00,